Location: Unspecified
(0.0000°N, 0.0000°E)
Time: 13:41:13
(UTC+00:00)

BREEZE-M R/B - Pass Details

Date: 31 October 2020
Orbit: 3083 x 63194 km, 23.7° (Epoch: 26 November)

Event Time Altitude Azimuth Distance (km) Brightness Sun altitude
Exits shadow 02:32:39 15° 226° (SW) 5,949 ? -45.8°
Maximum altitude 10:06:04 68° 4° (N) 59,446 ? 61.9°
Drops below altitude 10° 16:45:58 10° 294° (WNW) 63,105 ? 13.9°
Sets 17:46:43 0° 294° (WNW) 60,714 ? -0.8°
